ROMMA est une association bénévole à but non lucratif. Votre soutien est indispensable : ADHERER à ROMMA ou FAIRE un DON

Le Versoud - (38, Isère)

Vallée du Grésivaudan (220 m)   Longitude: 05° 51' 44" E   Latitude: 45° 13' 06" N Station partenaire n°6
 

Détail journalier du     <<     >>

Température Humidité Pression Vent Dir Rafale Dir. rafale Ensol.
Heure (°C) (%) (hPa) (km/h) (km/h) (min)
01:00 16.7741008010ENE0
02:00 16.277100800---0
03:00 15.978100702ENE0
04:00 16.278100706ENE0
05:00 15.683100700---0
06:00 15.785100700---0
07:00 15.692100702ENE0
08:00 15.39310071---18SE0
09:00 15.3941009011SSE0
10:00 14.894100806S0
11:00 14.6941009010S0
12:00 14.795100900---0
13:00 14.9931009013S0
14:00 13.68810105S35SSE0
15:00 12.98910111---18SE0
16:00 14.289101106N10
17:00 14.390101200---0
18:00 14.390101300---0
19:00 12.1921015010SSO0
20:00 11.493101606S0
21:00 11.194101700---0
22:00 10.994101700---0
23:00 10.194101800---0
minuit 9.194101800---0

Graphique du 15-10-2019

 

Serveur OMMA